KNACKSAT-2

Last updated on Mon Sep 21 2026 00:02:05 GMT+0000 (Coordinated Universal Time)

1 67683U 98067XZ 26263.46449619 .00061601 00000+0 51214-3 0 9991 2 67683 51.6240 172.0038 0008218 186.0797 174.0101 15.69509455 35199
UTC large
Height (km)
Speed (km/s)
/
Latitude / Longitude
Inclination (degrees)
Orbital Period (minutes)
Azimuth
Elevation
Range (km)
Doppler Factor

Next 0 passes for location: London (51.5072 / 0.1276)

No passes found over London.
KNACKSAT-2